Fryeburg, ME

2:10 AM EDT on September 29, 2016 (GMT -0400)
Eastern Slopes Regional

Weather History for KIZG - November, 2014

Change the Weather History Date:

Friday, November 28, 2014

  Actual Average Record
Temperature  
Mean Temperature 22 °F -  
Max Temperature 32 °F 39 °F 59 °F (2015)
Min Temperature 9 °F 21 °F -2 °F (1996)
Degree Days  
Heating Degree Days 43    
Moisture  
Dew Point 18 °F    
Average Humidity 78    
Maximum Humidity 92    
Minimum Humidity 53    
Precipitation  
Precipitation 0.00 in - - ()
Sea Level Pressure  
Sea Level Pressure 30.07 in    
Wind  
Wind Speed 1 mph (WNW)    
Max Wind Speed 8 mph    
Max Gust Speed 17 mph    
Visibility 8 miles    
Events Snow    
Averages and records for this station are not official NWS values.
T = Trace of Precipitation, MM = Missing Value Source: NWS Daily Summary

Daily Weather History Graph

Daily Weather History Graph

Search for Another Location

Airport or City:

Trip Planner

Search our weather history database for the weather conditions in past years. The results will help you decide how hot, cold, wet, or windy it might be!

Date:

Astronomy

Nov. 28, 2014 Rise Set
Actual Time 6:54 AM EST 4:08 PM EST
Civil Twilight 6:22 AM EST 4:40 PM EST
Nautical Twilight 5:46 AM EST 5:16 PM EST
Astronomical Twilight 5:12 AM EST 5:50 PM EST
Moon 11:39 AM EST (11/28) 11:01 PM EST (11/28)
Length of Visible Light 10h 17m
Length of Day
9h 13m
Waxing Crescent, 42% of the Moon is Illuminated
Nov 28
Waxing Crescent
Nov 29
First Quarter
Dec 6
Full
Dec 14
Last Quarter
Dec 21
New

Hourly Weather History & Observations

Time (EST) Temp. Windchill Dew Point Humidity Pressure Visibility Wind Dir Wind Speed Gust Speed Precip Events Conditions
12:54 AM 25.0 °F - 21.0 °F 85% 30.02 in 10.0 mi Calm Calm - N/A   Overcast
1:54 AM 25.0 °F - 21.0 °F 85% 30.03 in 10.0 mi Calm Calm - N/A   Overcast
2:54 AM 24.1 °F - 21.0 °F 88% 30.03 in 10.0 mi Calm Calm - N/A   Overcast
3:54 AM 23.0 °F - 21.0 °F 92% 30.03 in 10.0 mi Calm Calm - N/A   Overcast
4:54 AM 24.1 °F - 21.0 °F 88% 30.03 in 6.0 mi Calm Calm - 0.00 in Snow Light Snow
5:54 AM 23.0 °F - 21.0 °F 92% 30.05 in 7.0 mi Calm Calm - 0.00 in Snow Light Snow
6:54 AM 23.0 °F - 21.0 °F 92% 30.05 in 9.0 mi Calm Calm - 0.00 in   Overcast
7:16 AM 24.1 °F - 21.0 °F 88% 30.03 in 2.5 mi Calm Calm - 0.00 in Snow Light Snow
7:26 AM 24.1 °F - 21.0 °F 88% 30.03 in 4.0 mi Calm Calm - 0.00 in Snow Light Snow
7:54 AM 24.1 °F - 21.9 °F 91% 30.06 in 4.0 mi Calm Calm - 0.00 in Snow Light Snow
8:46 AM 25.0 °F - 21.9 °F 88% 30.04 in 2.5 mi Calm Calm - 0.00 in Snow Light Snow
8:54 AM 25.0 °F - 21.9 °F 88% 30.06 in 2.5 mi Calm Calm - 0.00 in Snow Light Snow
9:02 AM 25.0 °F - 21.9 °F 88% 30.04 in 4.0 mi Calm Calm - 0.00 in Snow Light Snow
9:54 AM 26.1 °F - 23.0 °F 88% 30.07 in 10.0 mi Calm Calm - 0.00 in   Overcast
10:54 AM 28.0 °F - 21.0 °F 75% 30.05 in 10.0 mi Calm Calm - N/A   Mostly Cloudy
11:19 AM 30.0 °F - 21.9 °F 72% 30.02 in 10.0 mi Calm Calm - N/A   Mostly Cloudy
11:54 AM 30.9 °F - 21.0 °F 67% 30.04 in 10.0 mi Calm Calm - N/A   Mostly Cloudy
12:54 PM 32.0 °F 24.8 °F 18.0 °F 56% 30.03 in 10.0 mi West 8.1 mph - N/A   Overcast
1:54 PM 30.9 °F 23.5 °F 16.0 °F 54% 30.04 in 10.0 mi WNW 8.1 mph - N/A   Clear
2:54 PM 30.0 °F 22.4 °F 15.1 °F 54% 30.05 in 10.0 mi WNW 8.1 mph - N/A   Overcast
3:54 PM 27.0 °F 18.7 °F 14.0 °F 58% 30.07 in 10.0 mi West 8.1 mph 17.3 mph N/A   Mostly Cloudy
4:54 PM 27.0 °F 19.5 °F 12.0 °F 53% 30.09 in 10.0 mi WNW 6.9 mph - N/A   Overcast
5:54 PM 24.1 °F 19.7 °F 12.9 °F 62% 30.12 in 10.0 mi West 3.5 mph - N/A   Clear
6:54 PM 21.0 °F 16.2 °F 12.9 °F 71% 30.13 in 10.0 mi NNW 3.5 mph - N/A   Clear
7:54 PM 18.0 °F 12.7 °F 12.0 °F 78% 30.14 in 10.0 mi WSW 3.5 mph - N/A   Clear
8:54 PM 19.0 °F 12.3 °F 12.0 °F 74% 30.15 in 10.0 mi NW 4.6 mph - N/A   Clear
9:54 PM 15.1 °F - 10.9 °F 84% 30.16 in 10.0 mi Calm Calm - N/A   Mostly Cloudy
10:54 PM 12.0 °F - 8.1 °F 84% 30.18 in 10.0 mi Calm Calm - N/A   Scattered Clouds
11:54 PM 9.0 °F - 6.1 °F 88% 30.18 in 10.0 mi Calm Calm - N/A   Clear